Time,TemperatureF,DewpointF,PressureIn,WindDirection,WindDirectionDegrees,WindSpeedMPH,WindSpeedGustMPH,Humidity,HourlyPrecipIn,Conditions,Clouds,dailyrainin,SoftwareType,DateUTC
2014-01-12 00:00:00,33.6,31.3,30.02,South,183,0.0,0.0,91,0.00,,,0.00,VWS V14.01,2014-01-12 06:00:00,
2014-01-12 00:12:00,36.1,32.6,30.02,South,183,0.0,0.0,87,0.00,,,0.00,VWS V14.01,2014-01-12 06:12:00,
2014-01-12 00:15:00,32.9,30.6,30.00,South,184,0.0,0.0,91,0.00,,,0.00,VWS V14.01,2014-01-12 06:15:00,
2014-01-12 00:27:00,34.8,31.6,30.02,South,183,0.0,0.0,88,0.00,,,0.00,VWS V14.01,2014-01-12 06:27:00,
2014-01-12 00:30:00,32.7,30.9,30.02,South,183,0.0,0.0,93,0.00,,,0.00,VWS V14.01,2014-01-12 06:30:00,
2014-01-12 00:42:00,34.0,31.4,30.02,South,183,0.0,0.0,90,0.00,,,0.00,VWS V14.01,2014-01-12 06:42:00,
2014-01-12 00:45:00,32.4,30.6,30.03,South,183,0.0,0.0,93,0.00,,,0.00,VWS V14.01,2014-01-12 06:45:00,
2014-01-12 00:57:00,33.6,31.3,30.02,South,183,0.0,0.0,91,0.00,,,0.00,VWS V14.01,2014-01-12 06:57:00,
2014-01-12 01:00:00,31.9,30.1,30.03,South,183,0.0,0.0,93,0.00,,,0.00,VWS V14.01,2014-01-12 07:00:00,
2014-01-12 01:12:00,32.9,30.6,30.00,South,184,0.0,0.0,91,0.00,,,0.00,VWS V14.01,2014-01-12 07:12:00,
2014-01-12 01:15:00,31.5,29.7,30.04,South,184,0.0,0.0,93,0.00,,,0.00,VWS V14.01,2014-01-12 07:15:00,
2014-01-12 01:27:00,32.7,30.9,30.02,South,183,0.0,0.0,93,0.00,,,0.00,VWS V14.01,2014-01-12 07:27:00,
2014-01-12 01:30:00,31.0,29.5,30.05,South,183,0.0,0.0,94,0.00,,,0.00,VWS V14.01,2014-01-12 07:30:00,
2014-01-12 01:42:00,32.4,30.6,30.03,South,183,0.0,0.0,93,0.00,,,0.00,VWS V14.01,2014-01-12 07:42:00,
2014-01-12 01:45:00,30.4,28.9,30.06,South,184,0.0,0.0,94,0.00,,,0.00,VWS V14.01,2014-01-12 07:45:00,
2014-01-12 01:57:00,31.9,30.1,30.03,South,183,0.0,0.0,93,0.00,,,0.00,VWS V14.01,2014-01-12 07:57:00,
2014-01-12 02:00:00,30.0,28.2,30.06,South,183,0.0,0.0,93,0.00,,,0.00,VWS V14.01,2014-01-12 08:00:00,
2014-01-12 02:12:00,31.5,29.7,30.04,South,184,0.0,0.0,93,0.00,,,0.00,VWS V14.01,2014-01-12 08:12:00,
2014-01-12 02:15:00,29.9,28.6,30.08,South,183,0.0,0.0,95,0.00,,,0.00,VWS V14.01,2014-01-12 08:15:00,
2014-01-12 02:27:00,31.0,29.5,30.05,South,183,0.0,0.0,94,0.00,,,0.00,VWS V14.01,2014-01-12 08:27:00,
2014-01-12 02:30:00,29.7,28.2,30.07,South,183,0.0,0.0,94,0.00,,,0.00,VWS V14.01,2014-01-12 08:30:00,
2014-01-12 02:42:00,30.4,28.9,30.06,South,184,0.0,0.0,94,0.00,,,0.00,VWS V14.01,2014-01-12 08:42:00,
2014-01-12 02:45:00,29.3,27.8,30.08,South,184,0.0,0.0,94,0.00,,,0.00,VWS V14.01,2014-01-12 08:45:00,
2014-01-12 02:57:00,30.0,28.2,30.06,South,183,0.0,0.0,93,0.00,,,0.00,VWS V14.01,2014-01-12 08:57:00,
2014-01-12 03:00:00,28.9,27.6,30.08,South,184,0.0,0.0,95,0.00,,,0.00,VWS V14.01,2014-01-12 09:00:00,
2014-01-12 03:12:00,29.9,28.6,30.08,South,183,0.0,0.0,95,0.00,,,0.00,VWS V14.01,2014-01-12 09:12:00,
2014-01-12 03:15:00,28.7,27.5,30.08,South,183,0.0,0.0,95,0.00,,,0.00,VWS V14.01,2014-01-12 09:15:00,
2014-01-12 03:27:00,29.7,28.2,30.07,South,183,0.0,0.0,94,0.00,,,0.00,VWS V14.01,2014-01-12 09:27:00,
2014-01-12 03:30:00,28.4,27.1,30.08,South,184,0.0,0.0,95,0.00,,,0.00,VWS V14.01,2014-01-12 09:30:00,
2014-01-12 03:42:00,29.3,27.8,30.08,South,184,0.0,0.0,94,0.00,,,0.00,VWS V14.01,2014-01-12 09:42:00,
2014-01-12 03:45:00,28.5,27.2,30.09,South,183,0.0,0.0,95,0.00,,,0.00,VWS V14.01,2014-01-12 09:45:00,
2014-01-12 03:57:00,28.9,27.6,30.08,South,184,0.0,0.0,95,0.00,,,0.00,VWS V14.01,2014-01-12 09:57:00,
2014-01-12 04:00:00,28.1,26.9,30.09,South,183,0.0,0.0,95,0.00,,,0.00,VWS V14.01,2014-01-12 10:00:00,
2014-01-12 04:12:00,28.7,27.5,30.08,South,183,0.0,0.0,95,0.00,,,0.00,VWS V14.01,2014-01-12 10:12:00,
2014-01-12 04:15:00,28.4,27.1,30.09,South,183,0.0,0.0,95,0.00,,,0.00,VWS V14.01,2014-01-12 10:15:00,
2014-01-12 04:27:00,28.4,27.1,30.08,South,184,0.0,0.0,95,0.00,,,0.00,VWS V14.01,2014-01-12 10:27:00,
2014-01-12 04:30:00,28.3,27.0,30.09,South,183,0.0,0.0,95,0.00,,,0.00,VWS V14.01,2014-01-12 10:30:00,
2014-01-12 04:42:00,28.5,27.2,30.09,South,183,0.0,0.0,95,0.00,,,0.00,VWS V14.01,2014-01-12 10:42:00,
2014-01-12 04:45:00,28.2,27.0,30.09,South,183,0.0,0.0,95,0.00,,,0.00,VWS V14.01,2014-01-12 10:45:00,
2014-01-12 04:57:00,28.1,26.9,30.09,South,183,0.0,0.0,95,0.00,,,0.00,VWS V14.01,2014-01-12 10:57:00,
2014-01-12 05:00:00,27.8,26.6,30.09,South,183,0.0,0.0,95,0.00,,,0.00,VWS V14.01,2014-01-12 11:00:00,
2014-01-12 05:12:00,28.4,27.1,30.09,South,183,0.0,0.0,95,0.00,,,0.00,VWS V14.01,2014-01-12 11:12:00,
2014-01-12 05:15:00,27.8,26.6,30.10,South,183,0.0,0.0,95,0.00,,,0.00,VWS V14.01,2014-01-12 11:15:00,
2014-01-12 05:27:00,28.3,27.0,30.09,South,183,0.0,0.0,95,0.00,,,0.00,VWS V14.01,2014-01-12 11:27:00,
2014-01-12 05:30:00,27.9,26.7,30.10,South,184,0.0,0.0,95,0.00,,,0.00,VWS V14.01,2014-01-12 11:30:00,
2014-01-12 05:42:00,28.2,27.0,30.09,South,183,0.0,0.0,95,0.00,,,0.00,VWS V14.01,2014-01-12 11:42:00,
2014-01-12 05:45:00,27.6,26.4,30.09,South,184,0.0,0.0,95,0.00,,,0.00,VWS V14.01,2014-01-12 11:45:00,
2014-01-12 05:57:00,27.8,26.6,30.09,South,183,0.0,0.0,95,0.00,,,0.00,VWS V14.01,2014-01-12 11:57:00,
2014-01-12 06:00:00,27.6,26.4,30.11,South,183,0.0,0.0,95,0.00,,,0.00,VWS V14.01,2014-01-12 12:00:00,
2014-01-12 06:12:00,27.8,26.6,30.10,South,183,0.0,0.0,95,0.00,,,0.00,VWS V14.01,2014-01-12 12:12:00,
2014-01-12 06:15:00,27.6,26.6,30.11,South,184,0.0,0.0,96,0.00,,,0.00,VWS V14.01,2014-01-12 12:15:00,
2014-01-12 06:27:00,27.9,26.7,30.10,South,184,0.0,0.0,95,0.00,,,0.00,VWS V14.01,2014-01-12 12:27:00,
2014-01-12 06:30:00,28.3,27.3,30.11,South,183,0.0,0.0,96,0.00,,,0.00,VWS V14.01,2014-01-12 12:30:00,
2014-01-12 06:42:00,27.6,26.4,30.09,South,184,0.0,0.0,95,0.00,,,0.00,VWS V14.01,2014-01-12 12:42:00,
2014-01-12 06:45:00,31.4,30.4,30.11,South,184,0.0,0.0,96,0.00,,,0.00,VWS V14.01,2014-01-12 12:45:00,
2014-01-12 06:57:00,27.6,26.4,30.11,South,183,0.0,0.0,95,0.00,,,0.00,VWS V14.01,2014-01-12 12:57:00,
2014-01-12 07:00:00,33.7,32.9,30.11,South,183,0.0,0.0,97,0.00,,,0.00,VWS V14.01,2014-01-12 13:00:00,
2014-01-12 07:12:00,27.6,26.6,30.11,South,184,0.0,0.0,96,0.00,,,0.00,VWS V14.01,2014-01-12 13:12:00,
2014-01-12 07:15:00,35.1,34.3,30.11,South,183,0.0,0.0,97,0.00,,,0.00,VWS V14.01,2014-01-12 13:15:00,
2014-01-12 07:27:00,28.3,27.3,30.11,South,183,0.0,0.0,96,0.00,,,0.00,VWS V14.01,2014-01-12 13:27:00,
2014-01-12 07:30:00,38.4,36.0,30.11,ESE,110,2.3,2.3,91,0.00,,,0.00,VWS V14.01,2014-01-12 13:30:00,
2014-01-12 07:42:00,31.4,30.4,30.11,South,184,0.0,0.0,96,0.00,,,0.00,VWS V14.01,2014-01-12 13:42:00,
2014-01-12 07:45:00,41.5,36.7,30.11,South,182,0.0,3.5,83,0.00,,,0.00,VWS V14.01,2014-01-12 13:45:00,
2014-01-12 07:57:00,33.7,32.9,30.11,South,183,0.0,0.0,97,0.00,,,0.00,VWS V14.01,2014-01-12 13:57:00,
2014-01-12 08:00:00,43.7,37.0,30.12,SE,139,0.0,3.5,77,0.00,,,0.00,VWS V14.01,2014-01-12 14:00:00,
2014-01-12 08:12:00,35.1,34.3,30.11,South,183,0.0,0.0,97,0.00,,,0.00,VWS V14.01,2014-01-12 14:12:00,
2014-01-12 08:15:00,45.0,37.2,30.13,South,191,2.3,3.5,74,0.00,,,0.00,VWS V14.01,2014-01-12 14:15:00,
2014-01-12 08:27:00,38.4,36.0,30.11,ESE,110,2.3,2.3,91,0.00,,,0.00,VWS V14.01,2014-01-12 14:27:00,
2014-01-12 08:30:00,46.8,38.3,30.13,SE,140,1.1,5.8,72,0.00,,,0.00,VWS V14.01,2014-01-12 14:30:00,
2014-01-12 08:42:00,41.5,36.7,30.11,South,182,0.0,3.4,83,0.00,,,0.00,VWS V14.01,2014-01-12 14:42:00,
2014-01-12 08:45:00,48.7,37.9,30.12,SSE,150,1.1,8.1,66,0.00,,,0.00,VWS V14.01,2014-01-12 14:45:00,
2014-01-12 08:57:00,43.7,37.0,30.12,SE,139,0.0,3.4,77,0.00,,,0.00,VWS V14.01,2014-01-12 14:57:00,
2014-01-12 09:00:00,49.7,37.6,30.12,South,187,2.3,6.9,63,0.00,,,0.00,VWS V14.01,2014-01-12 15:00:00,
2014-01-12 09:12:00,45.0,37.2,30.13,South,191,2.3,3.4,74,0.00,,,0.00,VWS V14.01,2014-01-12 15:12:00,
2014-01-12 09:15:00,50.8,37.0,30.12,SSE,162,4.6,8.1,59,0.00,,,0.00,VWS V14.01,2014-01-12 15:15:00,
2014-01-12 09:27:00,46.8,38.3,30.13,SE,140,1.1,5.8,72,0.00,,,0.00,VWS V14.01,2014-01-12 15:27:00,
2014-01-12 09:30:00,51.6,36.4,30.12,South,172,8.1,12.6,56,0.00,,,0.00,VWS V14.01,2014-01-12 15:30:00,
2014-01-12 09:42:00,48.7,37.9,30.12,SSE,150,1.1,8.1,66,0.00,,,0.00,VWS V14.01,2014-01-12 15:42:00,
2014-01-12 09:45:00,52.2,37.0,30.11,SSW,203,8.1,11.5,56,0.00,,,0.00,VWS V14.01,2014-01-12 15:45:00,
2014-01-12 09:57:00,49.7,37.6,30.12,South,187,2.3,6.9,63,0.00,,,0.00,VWS V14.01,2014-01-12 15:57:00,
2014-01-12 10:00:00,53.4,37.2,30.10,SSW,208,5.8,10.4,54,0.00,,,0.00,VWS V14.01,2014-01-12 16:00:00,
2014-01-12 10:12:00,50.8,37.0,30.12,SSE,162,4.6,8.1,59,0.00,,,0.00,VWS V14.01,2014-01-12 16:12:00,
2014-01-12 10:15:00,54.8,37.5,30.10,ESE,120,3.5,10.4,52,0.00,,,0.00,VWS V14.01,2014-01-12 16:15:00,
2014-01-12 10:27:00,51.6,36.4,30.12,South,172,8.1,12.6,56,0.00,,,0.00,VWS V14.01,2014-01-12 16:27:00,
2014-01-12 10:30:00,55.7,36.3,30.08,SW,215,6.9,10.4,48,0.00,,,0.00,VWS V14.01,2014-01-12 16:30:00,
2014-01-12 10:42:00,52.2,37.0,30.11,SSW,203,8.1,11.5,56,0.00,,,0.00,VWS V14.01,2014-01-12 16:42:00,
2014-01-12 10:45:00,55.9,36.0,30.07,South,169,3.5,12.6,47,0.00,,,0.00,VWS V14.01,2014-01-12 16:45:00,
2014-01-12 10:57:00,53.4,37.2,30.10,SSW,208,5.8,10.3,54,0.00,,,0.00,VWS V14.01,2014-01-12 16:57:00,
2014-01-12 11:00:00,56.6,36.6,30.06,SE,146,5.8,13.8,47,0.00,,,0.00,VWS V14.01,2014-01-12 17:00:00,
2014-01-12 11:12:00,54.8,37.5,30.10,ESE,120,3.4,10.3,52,0.00,,,0.00,VWS V14.01,2014-01-12 17:12:00,
2014-01-12 11:15:00,57.2,37.2,30.05,East,90,2.3,11.5,47,0.00,,,0.00,VWS V14.01,2014-01-12 17:15:00,
2014-01-12 11:27:00,55.7,36.3,30.08,SW,215,6.9,10.3,48,0.00,,,0.00,VWS V14.01,2014-01-12 17:27:00,
2014-01-12 11:30:00,58.4,35.4,30.05,SSW,194,3.5,11.5,42,0.00,,,0.00,VWS V14.01,2014-01-12 17:30:00,
2014-01-12 11:42:00,55.9,36.0,30.07,South,169,3.4,12.6,47,0.00,,,0.00,VWS V14.01,2014-01-12 17:42:00,
2014-01-12 11:45:00,58.2,35.2,30.04,SSW,193,5.8,13.8,42,0.00,,,0.00,VWS V14.01,2014-01-12 17:45:00,
2014-01-12 11:57:00,56.6,36.6,30.06,SE,146,5.8,13.8,47,0.00,,,0.00,VWS V14.01,2014-01-12 17:57:00,
2014-01-12 12:00:00,59.2,35.5,30.03,SSE,166,5.8,13.8,41,0.00,,,0.00,VWS V14.01,2014-01-12 18:00:00,
2014-01-12 12:12:00,57.2,37.2,30.05,East,90,2.3,11.5,47,0.00,,,0.00,VWS V14.01,2014-01-12 18:12:00,
2014-01-12 12:15:00,59.3,35.0,30.02,WSW,240,4.6,16.1,40,0.00,,,0.00,VWS V14.01,2014-01-12 18:15:00,
2014-01-12 12:27:00,58.4,35.4,30.05,SSW,194,3.4,11.5,42,0.00,,,0.00,VWS V14.01,2014-01-12 18:27:00,
2014-01-12 12:30:00,60.1,34.4,30.01,SSE,162,6.9,18.4,38,0.00,,,0.00,VWS V14.01,2014-01-12 18:30:00,
2014-01-12 12:42:00,58.2,35.2,30.04,SSW,193,5.8,13.8,42,0.00,,,0.00,VWS V14.01,2014-01-12 18:42:00,
2014-01-12 12:45:00,60.1,33.8,30.01,SSW,203,13.8,16.1,37,0.00,,,0.00,VWS V14.01,2014-01-12 18:45:00,
2014-01-12 12:57:00,59.2,35.5,30.03,SSE,166,5.8,13.8,41,0.00,,,0.00,VWS V14.01,2014-01-12 18:57:00,
2014-01-12 13:00:00,60.2,33.8,30.01,South,177,5.8,14.9,37,0.00,,,0.00,VWS V14.01,2014-01-12 19:00:00,
2014-01-12 13:12:00,59.3,35.0,30.02,WSW,240,4.6,16.1,40,0.00,,,0.00,VWS V14.01,2014-01-12 19:12:00,
2014-01-12 13:15:00,61.1,34.0,30.00,SSW,194,5.8,11.5,36,0.00,,,0.00,VWS V14.01,2014-01-12 19:15:00,
2014-01-12 13:27:00,60.1,34.4,30.01,SSE,162,6.9,18.4,38,0.00,,,0.00,VWS V14.01,2014-01-12 19:27:00,
2014-01-12 13:30:00,61.5,33.6,30.00,SSE,159,2.3,10.4,35,0.00,,,0.00,VWS V14.01,2014-01-12 19:30:00,
2014-01-12 13:42:00,60.1,33.8,30.01,SSW,203,13.8,16.1,37,0.00,,,0.00,VWS V14.01,2014-01-12 19:42:00,
2014-01-12 13:45:00,61.5,33.6,30.00,SSW,201,6.9,14.9,35,0.00,,,0.00,VWS V14.01,2014-01-12 19:45:00,
2014-01-12 13:57:00,60.2,33.8,30.01,South,177,5.8,14.9,37,0.00,,,0.00,VWS V14.01,2014-01-12 19:57:00,
2014-01-12 14:00:00,61.7,34.5,29.99,SSE,161,3.5,13.8,36,0.00,,,0.00,VWS V14.01,2014-01-12 20:00:00,
2014-01-12 14:12:00,61.1,34.0,30.00,SSW,194,5.8,11.5,36,0.00,,,0.00,VWS V14.01,2014-01-12 20:12:00,
2014-01-12 14:15:00,61.8,33.2,29.99,SSE,150,2.3,12.6,34,0.00,,,0.00,VWS V14.01,2014-01-12 20:15:00,
2014-01-12 14:27:00,61.5,33.6,30.00,SSE,159,2.3,10.3,35,0.00,,,0.00,VWS V14.01,2014-01-12 20:27:00,
2014-01-12 14:30:00,61.4,33.5,29.99,SSW,211,6.9,13.8,35,0.00,,,0.00,VWS V14.01,2014-01-12 20:30:00,
2014-01-12 14:42:00,61.5,33.6,30.00,SSW,201,6.9,14.9,35,0.00,,,0.00,VWS V14.01,2014-01-12 20:42:00,
2014-01-12 14:45:00,61.3,34.1,29.99,WSW,237,6.9,16.1,36,0.00,,,0.00,VWS V14.01,2014-01-12 20:45:00,
2014-01-12 14:57:00,61.7,34.5,29.99,SSE,161,3.4,13.8,36,0.00,,,0.00,VWS V14.01,2014-01-12 20:57:00,
2014-01-12 15:00:00,61.1,32.5,29.98,SSW,211,4.6,12.6,34,0.00,,,0.00,VWS V14.01,2014-01-12 21:00:00,
2014-01-12 15:12:00,61.8,33.2,29.99,SSE,150,2.3,12.6,34,0.00,,,0.00,VWS V14.01,2014-01-12 21:12:00,
2014-01-12 15:15:00,60.8,33.0,29.98,SSW,203,8.1,12.6,35,0.00,,,0.00,VWS V14.01,2014-01-12 21:15:00,
2014-01-12 15:27:00,61.4,33.5,29.99,SSW,211,6.9,13.8,35,0.00,,,0.00,VWS V14.01,2014-01-12 21:27:00,
2014-01-12 15:30:00,60.4,33.3,29.97,South,180,1.1,9.2,36,0.00,,,0.00,VWS V14.01,2014-01-12 21:30:00,
2014-01-12 15:42:00,61.3,34.1,29.99,WSW,237,6.9,16.1,36,0.00,,,0.00,VWS V14.01,2014-01-12 21:42:00,
2014-01-12 15:45:00,59.5,31.9,29.97,South,179,3.5,16.1,35,0.00,,,0.00,VWS V14.01,2014-01-12 21:45:00,
2014-01-12 15:57:00,61.1,32.5,29.98,SSW,211,4.6,12.6,34,0.00,,,0.00,VWS V14.01,2014-01-12 21:57:00,
2014-01-12 16:00:00,58.7,31.1,29.96,SE,127,5.8,11.5,35,0.00,,,0.00,VWS V14.01,2014-01-12 22:00:00,
2014-01-12 16:12:00,60.8,33.0,29.98,SSW,203,8.1,12.6,35,0.00,,,0.00,VWS V14.01,2014-01-12 22:12:00,
2014-01-12 16:15:00,57.8,30.4,29.97,SSW,197,3.5,8.1,35,0.00,,,0.00,VWS V14.01,2014-01-12 22:15:00,
2014-01-12 16:27:00,60.4,33.3,29.97,South,180,1.1,9.2,36,0.00,,,0.00,VWS V14.01,2014-01-12 22:27:00,
2014-01-12 16:30:00,56.9,30.9,29.97,ESE,123,1.1,6.9,37,0.00,,,0.00,VWS V14.01,2014-01-12 22:30:00,
2014-01-12 16:42:00,59.5,31.9,29.97,South,179,3.4,16.1,35,0.00,,,0.00,VWS V14.01,2014-01-12 22:42:00,
2014-01-12 16:45:00,56.3,30.4,29.97,SE,145,0.0,8.1,37,0.00,,,0.00,VWS V14.01,2014-01-12 22:45:00,
2014-01-12 16:57:00,58.7,31.1,29.96,SE,127,5.8,11.5,35,0.00,,,0.00,VWS V14.01,2014-01-12 22:57:00,
2014-01-12 17:00:00,56.0,29.4,29.97,South,188,2.3,9.2,36,0.00,,,0.00,VWS V14.01,2014-01-12 23:00:00,
2014-01-12 17:12:00,57.8,30.4,29.97,SSW,197,3.4,8.1,35,0.00,,,0.00,VWS V14.01,2014-01-12 23:12:00,
2014-01-12 17:15:00,55.9,28.7,29.97,South,187,2.3,11.5,35,0.00,,,0.00,VWS V14.01,2014-01-12 23:15:00,
2014-01-12 17:27:00,56.9,30.9,29.97,ESE,123,1.1,6.9,37,0.00,,,0.00,VWS V14.01,2014-01-12 23:27:00,
2014-01-12 17:30:00,55.3,28.8,29.97,South,191,1.1,10.4,36,0.00,,,0.00,VWS V14.01,2014-01-12 23:30:00,
2014-01-12 17:42:00,56.3,30.4,29.97,SE,145,0.0,8.1,37,0.00,,,0.00,VWS V14.01,2014-01-12 23:42:00,
2014-01-12 17:45:00,54.9,29.1,29.97,SSE,148,2.3,10.4,37,0.00,,,0.00,VWS V14.01,2014-01-12 23:45:00,
2014-01-12 17:57:00,56.0,29.4,29.97,South,188,2.3,9.2,36,0.00,,,0.00,VWS V14.01,2014-01-12 23:57:00,
2014-01-12 18:00:00,54.3,29.9,29.97,SSE,156,1.1,6.9,39,0.00,,,0.00,VWS V14.01,2014-01-13 00:00:00,
2014-01-12 18:12:00,55.9,28.7,29.97,South,187,2.3,11.5,35,0.00,,,0.00,VWS V14.01,2014-01-13 00:12:00,
2014-01-12 18:15:00,53.7,30.0,29.97,ESE,103,1.1,6.9,40,0.00,,,0.00,VWS V14.01,2014-01-13 00:15:00,
2014-01-12 18:27:00,55.3,28.8,29.97,South,191,1.1,10.3,36,0.00,,,0.00,VWS V14.01,2014-01-13 00:27:00,
2014-01-12 18:30:00,53.6,31.1,29.96,South,187,2.3,8.1,42,0.00,,,0.00,VWS V14.01,2014-01-13 00:30:00,
2014-01-12 18:42:00,54.9,29.1,29.97,SSE,148,2.3,10.3,37,0.00,,,0.00,VWS V14.01,2014-01-13 00:42:00,
2014-01-12 18:45:00,53.8,31.9,29.96,SSW,195,2.3,9.2,43,0.00,,,0.00,VWS V14.01,2014-01-13 00:45:00,
2014-01-12 18:57:00,54.3,29.9,29.97,SSE,156,1.1,6.9,39,0.00,,,0.00,VWS V14.01,2014-01-13 00:57:00,
2014-01-12 19:00:00,54.2,32.8,29.95,SSW,194,1.1,8.1,44,0.00,,,0.00,VWS V14.01,2014-01-13 01:00:00,
2014-01-12 19:12:00,53.7,30.0,29.97,ESE,103,1.1,6.9,40,0.00,,,0.00,VWS V14.01,2014-01-13 01:12:00,
2014-01-12 19:15:00,54.5,33.0,29.95,ESE,108,4.6,11.5,44,0.00,,,0.00,VWS V14.01,2014-01-13 01:15:00,
2014-01-12 19:27:00,53.6,31.1,29.96,South,187,2.3,8.1,42,0.00,,,0.00,VWS V14.01,2014-01-13 01:27:00,
2014-01-12 19:30:00,54.7,33.2,29.95,SSW,200,2.3,10.4,44,0.00,,,0.00,VWS V14.01,2014-01-13 01:30:00,
2014-01-12 19:42:00,53.8,31.9,29.96,SSW,195,2.3,9.2,43,0.00,,,0.00,VWS V14.01,2014-01-13 01:42:00,
2014-01-12 19:45:00,55.2,33.1,29.94,South,174,3.5,9.2,43,0.00,,,0.00,VWS V14.01,2014-01-13 01:45:00,
2014-01-12 19:57:00,54.2,32.8,29.95,SSW,194,1.1,8.1,44,0.00,,,0.00,VWS V14.01,2014-01-13 01:57:00,
2014-01-12 20:00:00,56.1,33.3,29.94,South,179,4.6,11.5,42,0.00,,,0.00,VWS V14.01,2014-01-13 02:00:00,
2014-01-12 20:12:00,54.5,33.0,29.95,ESE,108,4.6,11.5,44,0.00,,,0.00,VWS V14.01,2014-01-13 02:12:00,
2014-01-12 20:15:00,56.7,33.9,29.94,SSE,166,6.9,18.4,42,0.00,,,0.00,VWS V14.01,2014-01-13 02:15:00,
2014-01-12 20:27:00,54.7,33.2,29.95,SSW,200,2.3,10.3,44,0.00,,,0.00,VWS V14.01,2014-01-13 02:27:00,
2014-01-12 20:30:00,56.8,34.0,29.93,South,174,3.5,16.1,42,0.00,,,0.00,VWS V14.01,2014-01-13 02:30:00,
2014-01-12 20:42:00,55.2,33.1,29.94,South,174,3.4,9.2,43,0.00,,,0.00,VWS V14.01,2014-01-13 02:42:00,
2014-01-12 20:45:00,56.7,33.9,29.93,SE,124,5.8,14.9,42,0.00,,,0.00,VWS V14.01,2014-01-13 02:45:00,
2014-01-12 20:57:00,56.1,33.3,29.94,South,179,4.6,11.5,42,0.00,,,0.00,VWS V14.01,2014-01-13 02:57:00,
2014-01-12 21:00:00,56.5,34.3,29.92,SSW,204,4.6,13.8,43,0.00,,,0.00,VWS V14.01,2014-01-13 03:00:00,
2014-01-12 21:12:00,56.7,33.9,29.94,SSE,166,6.9,18.4,42,0.00,,,0.00,VWS V14.01,2014-01-13 03:12:00,
2014-01-12 21:15:00,56.3,34.7,29.92,South,172,3.5,12.6,44,0.00,,,0.00,VWS V14.01,2014-01-13 03:15:00,
2014-01-12 21:27:00,56.8,34.0,29.93,South,174,3.4,16.1,42,0.00,,,0.00,VWS V14.01,2014-01-13 03:27:00,
2014-01-12 21:30:00,55.9,34.9,29.92,SSW,193,1.1,10.4,45,0.00,,,0.00,VWS V14.01,2014-01-13 03:30:00,
2014-01-12 21:42:00,56.7,33.9,29.93,SE,124,5.8,14.9,42,0.00,,,0.00,VWS V14.01,2014-01-13 03:42:00,
2014-01-12 21:45:00,55.7,35.3,29.90,ESE,119,1.1,10.4,46,0.00,,,0.00,VWS V14.01,2014-01-13 03:45:00,
2014-01-12 21:57:00,56.5,34.3,29.92,SSW,204,4.6,13.8,43,0.00,,,0.00,VWS V14.01,2014-01-13 03:57:00,
2014-01-12 22:00:00,55.6,35.2,29.90,ENE,64,6.9,10.4,46,0.00,,,0.00,VWS V14.01,2014-01-13 04:00:00,
2014-01-12 22:12:00,56.3,34.7,29.92,South,172,3.4,12.6,44,0.00,,,0.00,VWS V14.01,2014-01-13 04:12:00,
2014-01-12 22:15:00,55.5,35.6,29.91,SW,225,2.3,10.4,47,0.00,,,0.00,VWS V14.01,2014-01-13 04:15:00,
2014-01-12 22:27:00,55.9,34.9,29.92,SSW,193,1.1,10.3,45,0.00,,,0.00,VWS V14.01,2014-01-13 04:27:00,
2014-01-12 22:30:00,55.3,36.0,29.92,WSW,249,2.3,9.2,48,0.00,,,0.00,VWS V14.01,2014-01-13 04:30:00,
2014-01-12 22:42:00,55.7,35.3,29.90,ESE,119,1.1,10.3,46,0.00,,,0.00,VWS V14.01,2014-01-13 04:42:00,
2014-01-12 22:45:00,55.6,36.8,29.91,WSW,255,2.3,10.4,49,0.00,,,0.00,VWS V14.01,2014-01-13 04:45:00,
2014-01-12 22:57:00,55.6,35.2,29.90,ENE,64,6.9,10.3,46,0.00,,,0.00,VWS V14.01,2014-01-13 04:57:00,
2014-01-12 23:00:00,56.9,36.9,29.91,SSW,203,1.1,11.5,47,0.00,,,0.00,VWS V14.01,2014-01-13 05:00:00,
2014-01-12 23:12:00,55.5,35.6,29.91,SW,225,2.3,10.3,47,0.00,,,0.00,VWS V14.01,2014-01-13 05:12:00,
2014-01-12 23:15:00,57.6,38.1,29.91,South,174,8.1,13.8,48,0.00,,,0.00,VWS V14.01,2014-01-13 05:15:00,
2014-01-12 23:27:00,55.3,36.0,29.92,WSW,249,2.3,9.2,48,0.00,,,0.00,VWS V14.01,2014-01-13 05:27:00,
2014-01-12 23:30:00,56.4,40.0,29.89,SSE,150,9.2,16.1,54,0.00,,,0.00,VWS V14.01,2014-01-13 05:30:00,
2014-01-12 23:42:00,55.6,36.8,29.91,WSW,255,2.3,10.3,49,0.00,,,0.00,VWS V14.01,2014-01-13 05:42:00,
2014-01-12 23:45:00,54.7,41.1,29.87,SSW,211,9.2,18.4,60,0.01,,,0.01,VWS V14.01,2014-01-13 05:45:00,
2014-01-12 23:57:00,56.9,36.9,29.91,SSW,203,1.1,11.5,47,0.00,,,0.00,VWS V14.01,2014-01-13 05:57:00,